Погода в Кора-Урсдоне

Россия / Республика Северная Осетия — Алания     43°05′48″N   44°05′33″E
темп.,
°C
ветер,
м/с
пор.,
м/с
влажн.,
%
обл.,
%
осадки,
мм/ч
давл.,
гПа
погр.,
м
24 мая, вт
вт2400:00+6з1296100 2.2 1008173
03:00+5ссв0196100 3.1 1008116
06:00+5сз1298100 3.0 1010210
09:00+5зсз1296100 7.1 1011246
12:00+7с1187100 1.3 1011532
15:00+6с2194100 2.1 1012410
18:00+5с1197100 0.4 1013102
21:00+5зсз0197100 1.4 1015100
25 мая, ср
ср2500:00+5з0196100 1.6 101644
03:00+4ссз1299100 3.4 1017203
06:00+4сз1397100 2.9 1019361
09:00+4ююв1295100 5.5 1020225
12:00+9св117442 0.5 1019875
15:00+9ссв228183 1.5 1019779
18:00+7с119392 2.4 1021104
21:00+6юз119393 3.8 102371
26 мая, чт
чт2600:00+4ююз228967 0.3 102320
03:00+3ююз328422 0.3 102334
06:00+5юз228125 0.0 102352
09:00+9ссв227575 0.1 1022809
12:00+10ссв217566 0.4 1022921
15:00+10св227860 0.8 1021666
18:00+10всв228468 0.1 1021364
21:00+6ююз228569 0.2 102322
27 мая, пт
пт2700:00+4ююз437295 0.0 102340
03:00+4ююз4462100 0.0 102351
06:00+6ююз4453100 0.0 102258
09:00+13ссв21395 0.0 1020776
12:00+15св32460 0.0 10201110
15:00+16св32510 0.0 10191107
18:00+13св22724 0.0 1020368
21:00+9ююз328024 0.0 102230
28 мая, сб
сб2800:00+8ююз33714 0.0 102036
03:00+7ююз33701 0.0 101936
06:00+10ююз22650 0.0 101942
09:00+16ссв21550 0.0 1016568
12:00+18ссв32580 0.0 1015918
15:00+18ссв326324 0.0 1015950
18:00+16св227814 0.1 1015370
21:00+11ююз32820 0.1 101728